Weather at General Ulpiano Paez Airport

Public forecast

Using degrees Celsius for public forecast. Weather courtesy of forecast.io.

Current aviation weather report (METAR) for General Ulpiano Paez Airport

Report is more than 2 hours old.

Retrieved 2021/08/05 23:00 UTC (5 hours ago):

SESA 052300Z 20012KT 9999 OVC010 22/19 Q1014 RMK A2997

Aviation forecast (TAF) for General Ulpiano Paez Airport

Forecast is more than 12 hours old.

Retrieved 2016/09/01 18:00 UTC (5 years ago):

TAF COR SCAT 011759Z 0118/0218 22010KT 9999 BKN018 TX16/0118Z TN08SAEQ01 SEQU 011800 RRE METAR SESA 011800Z 25008KT 9999 SCT010 BKN015 24/19 Q1013